sat.trackr.live / text

‹ back to catalog

ONEWEB-0135

NORAD 47281 · 2020-100Z

PAYLOAD ACTIVE UNKNOWN

§ Identity

Operator
Country
UK
Launch date
2020-12-18
Launch site
VOSTO
Launch vehicle
Mass (kg)
RCS (m²)

Purposes: comms

External: N2YO · Heavens-Above · Gunter

§ Orbital elements

Epoch: 2026-09-19T22:27:27.835776Z

Period
109.72 min
Inclination
87.8977°
Eccentricity
0.0001813
Mean motion
13.12442891 rev/d
Perigee alt
1,212.3 km
Apogee alt
1,215.1 km
Semi-major
7,591.9 km
B*
1.5309e-4
RAAN
331.8536°
Arg perigee
90.1088°
Mean anomaly
270.0248°
Rev number
27,716

§ Raw data

ONEWEB-01351 47281U 20100Z   26262.93573884  .00000068  00000+0  15309-3 0  99942 47281  87.8977 331.8536 0001813  90.1088 270.0248 13.12442891277169

JSON: /api/v1/satellites/47281 · /tle

For live sub-satellite position, see the globe view (requires WebGL).

§ Visibility from observer

Set your observer location to see the next 7 days of passes ≥ 10°. The values pass through the URL so the page stays shareable.

No JS? Fill the form by hand. The geolocation button needs JavaScript.